CO3D C

Last updated on Mon Jul 28 2025 00:02:07 GMT+0000 (Coordinated Universal Time)

1 64901U 25156C 25208.02972400 -.00000070 00000+0 00000+0 0 9996 2 64901 97.4561 286.2197 0003015 175.1235 308.0198 15.22389475 120

Satellite not in orbit

CO3D C